| time (UTC) | temp F | wind direction | speed knots | gust knots | rain 1hr in | rain 24hr in | rain mn in | humidity % | barometer mb |
| 20260507183149 | 63 | 228 | 2.6 | 0.0 | 0.00 | 0.00 | 0.00 | 81 | 1017.8 |
| 20260507183014 | 63 | 217 | 1.7 | 0.0 | 0.00 | 0.00 | 0.00 | 81 | 1017.7 |
| 20260507182522 | 64 | 193 | 2.6 | 0.0 | 0.00 | 0.00 | 0.00 | 80 | 1017.7 |
| 20260507182014 | 64 | 193 | 1.7 | 0.0 | 0.00 | 0.00 | 0.00 | 80 | 1017.6 |
| 20260507181950 | 64 | 193 | 2.6 | 2.6 | 0.00 | 0.00 | 0.00 | 80 | 1017.2 |
| 20260507181623 | 63 | 193 | 1.7 | 0.0 | 0.00 | 0.00 | 0.00 | 80 | 1017.5 |
| 20260507181543 | 64 | 193 | 1.7 | 0.0 | 0.00 | 0.00 | 0.00 | 80 | 1017.5 |
| 20260507181024 | 64 | 193 | 2.6 | 0.0 | 0.00 | 0.00 | 0.00 | 79 | 1017.5 |
| 20260507180950 | 64 | 193 | 1.7 | 2.6 | 0.00 | 0.00 | 0.00 | 79 | 1017.2 |
| 20260507180518 | 64 | 193 | 2.6 | 0.0 | 0.00 | 0.00 | 0.00 | 79 | 1017.5 |
| 20260507180039 | 65 | 193 | 1.7 | 0.0 | 0.00 | 0.00 | 0.00 | 79 | 1017.6 |
| 20260507175950 | 65 | 195 | 1.7 | 2.6 | 0.00 | 0.00 | 0.00 | 78 | 1017.3 |
| 20260507175544 | 65 | 227 | 1.7 | 0.0 | 0.00 | 0.00 | 0.00 | 78 | 1017.6 |
| 20260507175014 | 66 | 227 | 1.7 | 0.0 | 0.00 | 0.00 | 0.00 | 77 | 1017.6 |
| 20260507174950 | 66 | 227 | 1.7 | 2.6 | 0.00 | 0.00 | 0.00 | 77 | 1017.4 |
| 20260507174629 | 65 | 227 | 1.7 | 0.0 | 0.00 | 0.00 | 0.00 | 77 | 1017.7 |
| 20260507174515 | 66 | 227 | 1.7 | 0.0 | 0.00 | 0.00 | 0.00 | 77 | 1017.7 |
| 20260507174015 | 66 | 227 | 1.7 | 0.0 | 0.00 | 0.00 | 0.00 | 76 | 1017.6 |
| 20260507173950 | 66 | 227 | 1.7 | 2.6 | 0.00 | 0.00 | 0.00 | 76 | 1017.4 |
| 20260507173521 | 67 | 227 | 2.6 | 0.0 | 0.00 | 0.00 | 0.00 | 76 | 1017.8 |
| 20260507173011 | 67 | 229 | 1.7 | 0.0 | 0.00 | 0.00 | 0.00 | 75 | 1017.9 |
| 20260507172950 | 67 | 229 | 1.7 | 2.6 | 0.00 | 0.00 | 0.00 | 75 | 1017.4 |
| 20260507172526 | 67 | 242 | 1.7 | 0.0 | 0.00 | 0.00 | 0.00 | 75 | 1017.9 |
| 20260507172019 | 68 | 263 | 1.7 | 0.0 | 0.00 | 0.00 | 0.00 | 74 | 1018.0 |
| 20260507171950 | 68 | 263 | 1.7 | 2.6 | 0.00 | 0.00 | 0.00 | 74 | 1017.7 |
| 20260507171543 | 68 | 263 | 1.7 | 0.0 | 0.00 | 0.00 | 0.00 | 74 | 1017.9 |
| 20260507171024 | 68 | 263 | 0.9 | 0.0 | 0.00 | 0.00 | 0.00 | 71 | 1017.9 |
| 20260507170950 | 68 | 286 | 1.7 | 2.6 | 0.00 | 0.00 | 0.00 | 71 | 1017.4 |
| 20260507170549 | 68 | 360 | 0.0 | 0.0 | 0.00 | 0.00 | 0.00 | 70 | 1017.7 |
| 20260507170045 | 68 | 360 | 0.9 | 0.0 | 0.00 | 0.00 | 0.00 | 70 | 1017.6 |
| 20260507165950 | 68 | 0 | 0.0 | 1.7 | 0.00 | 0.00 | 0.00 | 70 | 1017.1 |
| 20260507165525 | 69 | 360 | 0.9 | 0.0 | 0.00 | 0.00 | 0.00 | 70 | 1017.4 |
| 20260507165020 | 69 | 360 | 0.9 | 0.0 | 0.00 | 0.00 | 0.00 | 70 | 1017.5 |
| 20260507164950 | 69 | 0 | 0.9 | 1.7 | 0.00 | 0.00 | 0.00 | 69 | 1017.3 |
| 20260507164609 | 68 | 360 | 0.9 | 0.0 | 0.00 | 0.00 | 0.00 | 67 | 1017.4 |
| 20260507164514 | 69 | 360 | 0.9 | 0.0 | 0.00 | 0.00 | 0.00 | 67 | 1017.5 |
| 20260507164024 | 69 | 355 | 0.9 | 0.0 | 0.00 | 0.00 | 0.00 | 66 | 1017.5 |
| 20260507163951 | 69 | 355 | 1.7 | 2.6 | 0.00 | 0.00 | 0.00 | 66 | 1017.2 |
| 20260507163517 | 69 | 355 | 0.9 | 0.0 | 0.00 | 0.00 | 0.00 | 69 | 1017.8 |
| 20260507163138 | 69 | 339 | 1.7 | 0.0 | 0.00 | 0.00 | 0.00 | 68 | 1017.7 |
| 20260507163013 | 69 | 339 | 1.7 | 0.0 | 0.00 | 0.00 | 0.00 | 67 | 1017.8 |
| 20260507162951 | 69 | 339 | 0.9 | 2.6 | 0.00 | 0.00 | 0.00 | 66 | 1017.5 |
| 20260507162524 | 69 | 339 | 1.7 | 0.0 | 0.00 | 0.00 | 0.00 | 67 | 1017.7 |
| 20260507162012 | 69 | 338 | 1.7 | 0.0 | 0.00 | 0.00 | 0.00 | 67 | 1017.7 |
| 20260507161950 | 69 | 338 | 0.9 | 2.6 | 0.00 | 0.00 | 0.00 | 67 | 1017.3 |
| 20260507161530 | 69 | 331 | 2.6 | 0.0 | 0.00 | 0.00 | 0.00 | 68 | 1017.8 |
| 20260507161504 | 69 | 331 | 2.6 | 0.0 | 0.00 | 0.00 | 0.00 | 68 | 1017.7 |
| 20260507161016 | 69 | 344 | 2.6 | 0.0 | 0.00 | 0.00 | 0.00 | 68 | 1017.8 |
| 20260507160951 | 69 | 344 | 1.7 | 2.6 | 0.00 | 0.00 | 0.00 | 68 | 1017.4 |
| 20260507160515 | 70 | 341 | 3.5 | 0.0 | 0.00 | 0.00 | 0.00 | 68 | 1017.9 |
| 20260507160138 | 69 | 340 | 3.5 | 0.0 | 0.00 | 0.00 | 0.00 | 67 | 1017.6 |
| 20260507160019 | 70 | 344 | 3.5 | 0.0 | 0.00 | 0.00 | 0.00 | 67 | 1017.9 |
| 20260507155523 | 70 | 343 | 2.6 | 0.0 | 0.00 | 0.00 | 0.00 | 67 | 1017.9 |
| 20260507155032 | 71 | 345 | 2.6 | 0.0 | 0.00 | 0.00 | 0.00 | 67 | 1017.9 |
| 20260507154950 | 71 | 347 | 1.7 | 2.6 | 0.00 | 0.00 | 0.00 | 67 | 1017.5 |
| 20260507154649 | 70 | 336 | 2.6 | 0.0 | 0.00 | 0.00 | 0.00 | 67 | 1017.9 |
| 20260507154516 | 71 | 331 | 2.6 | 0.0 | 0.00 | 0.00 | 0.00 | 66 | 1017.9 |
| 20260507154021 | 71 | 338 | 1.7 | 0.0 | 0.00 | 0.00 | 0.00 | 65 | 1017.8 |
| 20260507153513 | 71 | 348 | 1.7 | 0.0 | 0.00 | 0.00 | 0.00 | 67 | 1017.7 |
| 20260507153117 | 71 | 348 | 0.9 | 0.0 | 0.00 | 0.00 | 0.00 | 66 | 1017.7 |
| 20260507153017 | 71 | 348 | 0.9 | 0.0 | 0.00 | 0.00 | 0.00 | 67 | 1017.9 |
| 20260507152953 | 71 | 348 | 1.7 | 2.6 | 0.00 | 0.00 | 0.00 | 66 | 1017.4 |
| 20260507152518 | 71 | 348 | 0.9 | 0.0 | 0.00 | 0.00 | 0.00 | 65 | 1017.8 |
| 20260507152011 | 72 | 348 | 0.9 | 0.0 | 0.00 | 0.00 | 0.00 | 64 | 1017.7 |
| 20260507151949 | 72 | 348 | 1.7 | 2.6 | 0.00 | 0.00 | 0.00 | 64 | 1017.4 |
| 20260507151655 | 71 | 326 | 0.9 | 0.0 | 0.00 | 0.00 | 0.00 | 65 | 1017.7 |
| 20260507151533 | 72 | 319 | 0.9 | 0.0 | 0.00 | 0.00 | 0.00 | 65 | 1017.7 |
| 20260507151024 | 71 | 236 | 0.0 | 0.0 | 0.00 | 0.00 | 0.00 | 67 | 1017.7 |
| 20260507150950 | 71 | 236 | 0.9 | 1.7 | 0.00 | 0.00 | 0.00 | 66 | 1017.5 |
| 20260507150520 | 71 | 236 | 0.0 | 0.0 | 0.00 | 0.00 | 0.00 | 66 | 1017.7 |
| 20260507150144 | 70 | 236 | 0.0 | 0.0 | 0.00 | 0.00 | 0.00 | 67 | 1017.7 |
| 20260507150015 | 70 | 236 | 0.0 | 0.0 | 0.00 | 0.00 | 0.00 | 67 | 1017.9 |
| 20260507145949 | 70 | 236 | 0.0 | 0.9 | 0.00 | 0.00 | 0.00 | 67 | 1017.6 |
| 20260507145509 | 70 | 236 | 0.0 | 0.0 | 0.00 | 0.00 | 0.00 | 69 | 1017.8 |
| 20260507145032 | 69 | 236 | 0.9 | 0.0 | 0.00 | 0.00 | 0.00 | 70 | 1018.0 |
| 20260507144516 | 69 | 236 | 0.9 | 0.0 | 0.00 | 0.00 | 0.00 | 71 | 1017.9 |
| 20260507144051 | 69 | 236 | 0.9 | 0.0 | 0.00 | 0.00 | 0.00 | 72 | 1017.8 |
| 20260507143534 | 69 | 236 | 3.5 | 0.0 | 0.00 | 0.00 | 0.00 | 71 | 1017.9 |
| 20260507143049 | 68 | 244 | 4.3 | 0.0 | 0.00 | 0.00 | 0.00 | 70 | 1017.9 |
| 20260507143022 | 69 | 236 | 4.3 | 0.0 | 0.00 | 0.00 | 0.00 | 69 | 1018.0 |
| 20260507142951 | 69 | 242 | 5.2 | 7.0 | 0.00 | 0.00 | 0.00 | 69 | 1017.5 |
| 20260507142513 | 69 | 242 | 4.3 | 0.0 | 0.00 | 0.00 | 0.00 | 70 | 1017.8 |
| 20260507142046 | 69 | 232 | 3.5 | 0.0 | 0.00 | 0.00 | 0.00 | 69 | 1017.8 |
| 20260507141636 | 69 | 225 | 2.6 | 0.0 | 0.00 | 0.00 | 0.00 | 69 | 1017.6 |
| 20260507141528 | 69 | 227 | 2.6 | 0.0 | 0.00 | 0.00 | 0.00 | 69 | 1017.6 |
| 20260507141013 | 69 | 234 | 1.7 | 0.0 | 0.00 | 0.00 | 0.00 | 69 | 1017.7 |
| 20260507140950 | 69 | 237 | 2.6 | 4.3 | 0.00 | 0.00 | 0.00 | 70 | 1017.4 |
| 20260507140525 | 70 | 231 | 1.7 | 0.0 | 0.00 | 0.00 | 0.00 | 70 | 1017.6 |
| 20260507140010 | 70 | 243 | 1.7 | 0.0 | 0.00 | 0.00 | 0.00 | 69 | 1017.8 |
| 20260507135951 | 69 | 243 | 1.7 | 2.6 | 0.00 | 0.00 | 0.00 | 70 | 1017.4 |
| 20260507135547 | 70 | 234 | 0.9 | 0.0 | 0.00 | 0.00 | 0.00 | 71 | 1017.7 |
| 20260507135031 | 69 | 257 | 0.9 | 0.0 | 0.00 | 0.00 | 0.00 | 71 | 1017.8 |
| 20260507134951 | 69 | 257 | 0.9 | 2.6 | 0.00 | 0.00 | 0.00 | 72 | 1017.5 |
| 20260507134604 | 69 | 259 | 0.9 | 0.0 | 0.00 | 0.00 | 0.00 | 71 | 1017.8 |
| 20260507134512 | 69 | 236 | 0.9 | 0.0 | 0.00 | 0.00 | 0.00 | 70 | 1017.8 |
| 20260507134014 | 69 | 280 | 0.9 | 0.0 | 0.00 | 0.00 | 0.00 | 70 | 1017.8 |
| 20260507133950 | 69 | 280 | 0.9 | 1.7 | 0.00 | 0.00 | 0.00 | 71 | 1017.5 |
| 20260507133531 | 68 | 280 | 0.9 | 0.0 | 0.00 | 0.00 | 0.00 | 72 | 1017.9 |
| 20260507133121 | 68 | 280 | 0.9 | 0.0 | 0.00 | 0.00 | 0.00 | 73 | 1017.9 |
| 20260507133045 | 68 | 280 | 0.9 | 0.0 | 0.00 | 0.00 | 0.00 | 73 | 1018.0 |
| 20260507132951 | 68 | 280 | 0.9 | 1.7 | 0.00 | 0.00 | 0.00 | 73 | 1017.6 |
| 20260507132524 | 68 | 280 | 0.0 | 0.0 | 0.00 | 0.00 | 0.00 | 73 | 1018.0 |
| 20260507132022 | 68 | 280 | 0.0 | 0.0 | 0.00 | 0.00 | 0.00 | 75 | 1018.0 |
| 20260507131951 | 68 | 280 | 0.0 | 0.9 | 0.00 | 0.00 | 0.00 | 75 | 1017.9 |
| 20260507131645 | 67 | 280 | 0.0 | 0.0 | 0.00 | 0.00 | 0.00 | 75 | 1018.0 |
| 20260507131515 | 67 | 280 | 0.0 | 0.0 | 0.00 | 0.00 | 0.00 | 75 | 1018.1 |
| 20260507131014 | 67 | 280 | 0.9 | 0.0 | 0.00 | 0.00 | 0.00 | 76 | 1018.2 |
| 20260507130534 | 68 | 280 | 0.9 | 0.0 | 0.00 | 0.00 | 0.00 | 77 | 1018.4 |
| 20260507130026 | 68 | 280 | 0.9 | 0.0 | 0.00 | 0.00 | 0.00 | 75 | 1018.7 |
| 20260507125515 | 68 | 280 | 1.7 | 0.0 | 0.00 | 0.00 | 0.00 | 76 | 1018.6 |
| 20260507125013 | 68 | 280 | 1.7 | 0.0 | 0.00 | 0.00 | 0.00 | 77 | 1018.9 |
| 20260507124537 | 68 | 288 | 1.7 | 0.0 | 0.00 | 0.00 | 0.00 | 76 | 1018.9 |
| 20260507124008 | 68 | 284 | 2.6 | 0.0 | 0.00 | 0.00 | 0.00 | 75 | 1019.1 |
| 20260507123952 | 68 | 284 | 1.7 | 5.2 | 0.00 | 0.00 | 0.00 | 75 | 1018.9 |
| 20260507123523 | 68 | 274 | 3.5 | 0.0 | 0.00 | 0.00 | 0.00 | 74 | 1019.2 |
| 20260507123011 | 68 | 276 | 3.5 | 0.0 | 0.00 | 0.00 | 0.00 | 73 | 1019.2 |
| 20260507122950 | 68 | 282 | 3.5 | 7.0 | 0.00 | 0.00 | 0.00 | 73 | 1018.9 |
| 20260507122532 | 68 | 263 | 3.5 | 0.0 | 0.00 | 0.00 | 0.00 | 72 | 1019.3 |
| 20260507122054 | 68 | 265 | 2.6 | 0.0 | 0.00 | 0.00 | 0.00 | 74 | 1019.4 |
| 20260507121951 | 68 | 261 | 2.6 | 2.6 | 0.00 | 0.00 | 0.00 | 73 | 1019.0 |
| 20260507121523 | 68 | 246 | 2.6 | 0.0 | 0.00 | 0.00 | 0.00 | 75 | 1019.4 |
| 20260507121028 | 68 | 246 | 2.6 | 0.0 | 0.00 | 0.00 | 0.00 | 74 | 1019.4 |
| 20260507120950 | 68 | 244 | 2.6 | 6.1 | 0.00 | 0.00 | 0.00 | 74 | 1019.1 |
| 20260507120520 | 68 | 245 | 2.6 | 0.0 | 0.00 | 0.00 | 0.00 | 73 | 1019.4 |
| 20260507120012 | 68 | 236 | 2.6 | 0.0 | 0.00 | 0.00 | 0.00 | 74 | 1019.4 |
| 20260507115951 | 68 | 234 | 2.6 | 4.3 | 0.00 | 0.00 | 0.00 | 74 | 1019.1 |
| 20260507115516 | 68 | 244 | 2.6 | 0.0 | 0.00 | 0.00 | 0.00 | 74 | 1019.3 |
| 20260507115039 | 68 | 257 | 2.6 | 0.0 | 0.00 | 0.00 | 0.00 | 74 | 1019.3 |
| 20260507114951 | 68 | 266 | 1.7 | 2.6 | 0.00 | 0.00 | 0.00 | 74 | 1019.0 |
| 20260507114525 | 68 | 278 | 2.6 | 0.0 | 0.00 | 0.00 | 0.00 | 74 | 1019.4 |
| 20260507114013 | 68 | 267 | 2.6 | 0.0 | 0.00 | 0.00 | 0.00 | 74 | 1019.4 |
| 20260507113524 | 68 | 249 | 2.6 | 0.0 | 0.00 | 0.00 | 0.00 | 75 | 1019.3 |
| 20260507113142 | 68 | 251 | 2.6 | 0.0 | 0.00 | 0.00 | 0.00 | 75 | 1019.3 |
| 20260507113014 | 68 | 255 | 2.6 | 0.0 | 0.00 | 0.00 | 0.00 | 75 | 1019.2 |
| 20260507112952 | 68 | 256 | 1.7 | 2.6 | 0.00 | 0.00 | 0.00 | 75 | 1019.0 |
| 20260507112512 | 68 | 258 | 2.6 | 0.0 | 0.00 | 0.00 | 0.00 | 73 | 1019.2 |
| 20260507112027 | 69 | 259 | 2.6 | 0.0 | 0.00 | 0.00 | 0.00 | 73 | 1019.4 |
| 20260507111951 | 69 | 259 | 1.7 | 6.1 | 0.00 | 0.00 | 0.00 | 73 | 1018.9 |
| 20260507111647 | 69 | 259 | 3.5 | 0.0 | 0.00 | 0.00 | 0.00 | 71 | 1019.3 |
| 20260507111523 | 69 | 264 | 3.5 | 0.0 | 0.00 | 0.00 | 0.00 | 70 | 1019.3 |
| 20260507111017 | 70 | 257 | 2.6 | 0.0 | 0.00 | 0.00 | 0.00 | 66 | 1019.3 |
| 20260507110513 | 70 | 267 | 2.6 | 0.0 | 0.00 | 0.00 | 0.00 | 65 | 1019.3 |
| 20260507110027 | 70 | 259 | 2.6 | 0.0 | 0.00 | 0.00 | 0.00 | 65 | 1019.2 |
| 20260507105951 | 70 | 259 | 2.6 | 6.1 | 0.00 | 0.01 | 0.00 | 64 | 1018.8 |
| 20260507105518 | 70 | 252 | 3.5 | 0.0 | 0.00 | 0.00 | 0.00 | 64 | 1019.1 |
| 20260507105030 | 70 | 246 | 3.5 | 0.0 | 0.00 | 0.00 | 0.00 | 64 | 1019.2 |
| 20260507104951 | 70 | 264 | 2.6 | 6.1 | 0.00 | 0.01 | 0.00 | 64 | 1018.9 |
| 20260507104559 | 69 | 272 | 3.5 | 0.0 | 0.00 | 0.00 | 0.00 | 65 | 1019.1 |
| 20260507104538 | 70 | 271 | 3.5 | 0.0 | 0.00 | 0.00 | 0.00 | 65 | 1019.1 |
| 20260507104021 | 70 | 252 | 3.5 | 0.0 | 0.00 | 0.00 | 0.00 | 64 | 1019.0 |
| 20260507103537 | 70 | 255 | 2.6 | 0.0 | 0.00 | 0.00 | 0.00 | 64 | 1018.9 |
| 20260507103119 | 69 | 258 | 3.5 | 0.0 | 0.00 | 0.00 | 0.00 | 64 | 1018.9 |
| 20260507103014 | 70 | 266 | 3.5 | 0.0 | 0.00 | 0.00 | 0.00 | 64 | 1018.8 |
| 20260507102952 | 70 | 264 | 2.6 | 6.1 | 0.00 | 0.01 | 0.00 | 63 | 1018.6 |
| 20260507102524 | 70 | 302 | 3.5 | 0.0 | 0.00 | 0.00 | 0.00 | 65 | 1018.8 |
| 20260507102023 | 70 | 257 | 3.5 | 0.0 | 0.00 | 0.00 | 0.00 | 64 | 1018.9 |
| 20260507101951 | 70 | 253 | 3.5 | 6.1 | 0.00 | 0.01 | 0.00 | 63 | 1018.6 |
| 20260507101621 | 69 | 263 | 3.5 | 0.0 | 0.00 | 0.00 | 0.00 | 63 | 1018.7 |
| 20260507101519 | 70 | 264 | 3.5 | 0.0 | 0.00 | 0.00 | 0.00 | 63 | 1018.8 |
| 20260507101025 | 70 | 246 | 3.5 | 0.0 | 0.00 | 0.00 | 0.00 | 62 | 1018.6 |
| 20260507100952 | 70 | 273 | 2.6 | 5.2 | 0.00 | 0.01 | 0.00 | 62 | 1018.3 |
| 20260507100523 | 70 | 273 | 3.5 | 0.0 | 0.00 | 0.00 | 0.00 | 62 | 1018.6 |
| 20260507100124 | 70 | 265 | 3.5 | 0.0 | 0.00 | 0.00 | 0.00 | 62 | 1018.6 |
| 20260507100033 | 70 | 263 | 3.5 | 0.0 | 0.00 | 0.00 | 0.00 | 62 | 1018.6 |
| 20260507095951 | 70 | 259 | 2.6 | 7.0 | 0.00 | 0.01 | 0.00 | 62 | 1018.4 |
| 20260507095528 | 71 | 262 | 3.5 | 0.0 | 0.00 | 0.00 | 0.00 | 61 | 1018.6 |
| 20260507095043 | 71 | 264 | 2.6 | 0.0 | 0.00 | 0.00 | 0.00 | 60 | 1018.6 |
| 20260507094951 | 71 | 257 | 3.5 | 5.2 | 0.00 | 0.01 | 0.00 | 60 | 1018.4 |
| 20260507094609 | 71 | 259 | 2.6 | 0.0 | 0.00 | 0.00 | 0.00 | 60 | 1018.5 |
| 20260507094517 | 72 | 253 | 2.6 | 0.0 | 0.00 | 0.00 | 0.00 | 60 | 1018.5 |
| 20260507094029 | 72 | 263 | 2.6 | 0.0 | 0.00 | 0.00 | 0.00 | 59 | 1018.4 |
| 20260507093951 | 72 | 267 | 2.6 | 2.6 | 0.00 | 0.01 | 0.00 | 60 | 1018.0 |
| 20260507093517 | 72 | 286 | 2.6 | 0.0 | 0.00 | 0.00 | 0.00 | 60 | 1018.4 |
| 20260507093108 | 72 | 254 | 1.7 | 0.0 | 0.00 | 0.00 | 0.00 | 60 | 1018.4 |
| 20260507093009 | 72 | 219 | 1.7 | 0.0 | 0.00 | 0.00 | 0.00 | 59 | 1018.4 |
| 20260507092952 | 72 | 219 | 1.7 | 2.6 | 0.00 | 0.01 | 0.00 | 59 | 1018.1 |
| 20260507092525 | 72 | 268 | 1.7 | 0.0 | 0.00 | 0.00 | 0.00 | 59 | 1018.4 |
| 20260507092011 | 72 | 267 | 1.7 | 0.0 | 0.00 | 0.00 | 0.00 | 60 | 1018.5 |
| 20260507091606 | 71 | 268 | 0.9 | 0.0 | 0.00 | 0.00 | 0.00 | 60 | 1018.4 |
| 20260507091524 | 72 | 277 | 0.9 | 0.0 | 0.00 | 0.00 | 0.00 | 59 | 1018.5 |
| 20260507091040 | 72 | 5 | 0.9 | 0.0 | 0.00 | 0.00 | 0.00 | 58 | 1018.4 |
| 20260507090951 | 72 | 7 | 0.0 | 2.6 | 0.00 | 0.01 | 0.00 | 58 | 1018.1 |
| 20260507090527 | 72 | 10 | 0.9 | 0.0 | 0.00 | 0.00 | 0.00 | 59 | 1018.4 |
| 20260507090045 | 71 | 36 | 0.9 | 0.0 | 0.00 | 0.00 | 0.00 | 60 | 1018.3 |
| 20260507090013 | 72 | 36 | 0.9 | 0.0 | 0.00 | 0.00 | 0.00 | 60 | 1018.3 |
| 20260507085951 | 71 | 36 | 0.9 | 2.6 | 0.00 | 0.01 | 0.00 | 58 | 1017.9 |
| 20260507085524 | 72 | 39 | 0.9 | 0.0 | 0.00 | 0.00 | 0.00 | 58 | 1018.2 |
| 20260507085018 | 71 | 40 | 0.9 | 0.0 | 0.00 | 0.00 | 0.00 | 60 | 1018.2 |
| 20260507084951 | 71 | 55 | 0.9 | 2.6 | 0.00 | 0.01 | 0.00 | 60 | 1017.7 |
| 20260507084542 | 71 | 61 | 1.7 | 0.0 | 0.00 | 0.00 | 0.00 | 58 | 1018.1 |
| 20260507084524 | 71 | 93 | 2.6 | 0.0 | 0.00 | 0.00 | 0.00 | 59 | 1018.0 |
| 20260507084019 | 71 | 65 | 3.5 | 0.0 | 0.00 | 0.00 | 0.00 | 58 | 1018.0 |
| 20260507083952 | 71 | 71 | 2.6 | 6.1 | 0.00 | 0.01 | 0.00 | 58 | 1017.5 |
| 20260507083535 | 71 | 78 | 1.7 | 0.0 | 0.00 | 0.00 | 0.00 | 58 | 1017.9 |
| 20260507083126 | 71 | 64 | 0.9 | 0.0 | 0.00 | 0.00 | 0.00 | 59 | 1017.9 |
| 20260507083045 | 71 | 40 | 0.9 | 0.0 | 0.00 | 0.00 | 0.00 | 58 | 1017.9 |
| 20260507082951 | 71 | 73 | 0.9 | 2.6 | 0.00 | 0.01 | 0.00 | 58 | 1017.6 |
| 20260507082514 | 71 | 51 | 2.6 | 0.0 | 0.00 | 0.00 | 0.00 | 57 | 1017.9 |
| 20260507082020 | 71 | 120 | 2.6 | 0.0 | 0.00 | 0.00 | 0.00 | 57 | 1017.9 |
| 20260507081951 | 71 | 107 | 2.6 | 7.0 | 0.00 | 0.01 | 0.00 | 57 | 1017.5 |
| 20260507081603 | 70 | 78 | 2.6 | 0.0 | 0.00 | 0.00 | 0.00 | 57 | 1017.9 |
| 20260507081513 | 71 | 69 | 2.6 | 0.0 | 0.00 | 0.00 | 0.00 | 57 | 1018.0 |
| 20260507081026 | 71 | 28 | 2.6 | 0.0 | 0.00 | 0.00 | 0.00 | 56 | 1017.8 |
| 20260507080952 | 71 | 49 | 2.6 | 6.1 | 0.00 | 0.01 | 0.00 | 56 | 1017.6 |
| 20260507080513 | 70 | 42 | 2.6 | 0.0 | 0.00 | 0.00 | 0.00 | 57 | 1017.9 |
| 20260507080026 | 70 | 83 | 1.7 | 0.0 | 0.00 | 0.00 | 0.00 | 57 | 1017.8 |
| 20260507075952 | 70 | 69 | 1.7 | 4.3 | 0.00 | 0.01 | 0.00 | 57 | 1017.6 |
| 20260507075518 | 69 | 67 | 1.7 | 0.0 | 0.00 | 0.00 | 0.00 | 60 | 1018.0 |
| 20260507075024 | 69 | 70 | 1.7 | 0.0 | 0.00 | 0.00 | 0.00 | 61 | 1017.9 |
| 20260507074951 | 69 | 53 | 2.6 | 4.3 | 0.00 | 0.01 | 0.00 | 61 | 1017.8 |
| 20260507074601 | 69 | 96 | 2.6 | 0.0 | 0.00 | 0.00 | 0.00 | 61 | 1017.8 |
| 20260507074537 | 69 | 96 | 1.7 | 0.0 | 0.00 | 0.00 | 0.00 | 61 | 1018.0 |
| 20260507074028 | 69 | 80 | 1.7 | 0.0 | 0.00 | 0.00 | 0.00 | 61 | 1017.9 |
| 20260507073517 | 68 | 13 | 0.9 | 0.0 | 0.00 | 0.00 | 0.00 | 63 | 1017.9 |
| 20260507073029 | 67 | 17 | 0.9 | 0.0 | 0.00 | 0.00 | 0.00 | 62 | 1017.9 |
| 20260507073006 | 67 | 30 | 0.9 | 0.0 | 0.00 | 0.00 | 0.00 | 62 | 1017.8 |
| 20260507072952 | 67 | 30 | 1.7 | 2.6 | 0.00 | 0.01 | 0.00 | 63 | 1017.5 |
| 20260507072537 | 67 | 64 | 0.9 | 0.0 | 0.00 | 0.00 | 0.00 | 63 | 1017.9 |
| 20260507072026 | 67 | 64 | 0.9 | 0.0 | 0.00 | 0.00 | 0.00 | 63 | 1017.9 |
| 20260507071616 | 66 | 41 | 1.7 | 0.0 | 0.00 | 0.00 | 0.00 | 63 | 1017.9 |
| 20260507071558 | 67 | 41 | 1.7 | 0.0 | 0.00 | 0.00 | 0.00 | 63 | 1018.0 |
| 20260506230058 | 50 | 186 | 3.5 | 0.0 | 0.00 | 0.00 | 0.00 | 81 | 1016.7 |
| 20260506230018 | 51 | 186 | 3.5 | 0.0 | 0.00 | 0.00 | 0.00 | 81 | 1016.8 |
| 20260506225952 | 51 | 185 | 4.3 | 4.3 | 0.00 | 0.01 | 0.00 | 81 | 1016.4 |
| 20260506225534 | 51 | 186 | 2.6 | 0.0 | 0.00 | 0.00 | 0.00 | 81 | 1016.8 |
| 20260506225032 | 51 | 182 | 2.6 | 0.0 | 0.00 | 0.00 | 0.00 | 80 | 1016.9 |
| 20260506224605 | 51 | 182 | 2.6 | 0.0 | 0.00 | 0.00 | 0.00 | 81 | 1016.8 |
| 20260506224045 | 51 | 184 | 2.6 | 0.0 | 0.00 | 0.00 | 0.00 | 80 | 1016.9 |
| 20260506223110 | 51 | 185 | 2.6 | 0.0 | 0.00 | 0.00 | 0.00 | 80 | 1016.8 |
| 20260506223013 | 52 | 185 | 2.6 | 0.0 | 0.00 | 0.00 | 0.00 | 80 | 1016.8 |
| 20260506222953 | 52 | 185 | 2.6 | 4.3 | 0.00 | 0.01 | 0.00 | 80 | 1016.4 |
| 20260506222532 | 52 | 186 | 2.6 | 0.0 | 0.00 | 0.00 | 0.00 | 80 | 1016.6 |
| 20260506222023 | 52 | 189 | 1.7 | 0.0 | 0.00 | 0.00 | 0.00 | 80 | 1016.6 |
| 20260506221615 | 52 | 189 | 2.6 | 0.0 | 0.00 | 0.00 | 0.00 | 79 | 1016.7 |
| 20260506221522 | 52 | 189 | 2.6 | 0.0 | 0.00 | 0.00 | 0.00 | 79 | 1016.8 |
| 20260506221014 | 53 | 190 | 2.6 | 0.0 | 0.00 | 0.00 | 0.00 | 79 | 1016.9 |
| 20260506220953 | 53 | 190 | 2.6 | 4.3 | 0.00 | 0.01 | 0.00 | 79 | 1016.4 |
| 20260506220514 | 53 | 189 | 2.6 | 0.0 | 0.00 | 0.00 | 0.00 | 79 | 1016.7 |
| 20260506220033 | 53 | 185 | 2.6 | 0.0 | 0.00 | 0.00 | 0.00 | 78 | 1016.6 |
| 20260506220004 | 52 | 182 | 2.6 | 0.0 | 0.00 | 0.00 | 0.00 | 78 | 1016.5 |
| 20260506215953 | 53 | 180 | 2.6 | 4.3 | 0.00 | 0.01 | 0.00 | 78 | 1016.3 |
| 20260506215526 | 53 | 176 | 2.6 | 0.0 | 0.00 | 0.00 | 0.00 | 78 | 1016.5 |
| 20260506215022 | 53 | 177 | 2.6 | 0.0 | 0.00 | 0.00 | 0.00 | 78 | 1016.6 |
| 20260506214952 | 53 | 179 | 1.7 | 2.6 | 0.00 | 0.01 | 0.00 | 78 | 1016.2 |
| 20260506214539 | 53 | 197 | 2.6 | 0.0 | 0.00 | 0.00 | 0.00 | 78 | 1016.6 |
| 20260506214513 | 54 | 198 | 2.6 | 0.0 | 0.00 | 0.00 | 0.00 | 78 | 1016.6 |
| 20260506214009 | 54 | 206 | 2.6 | 0.0 | 0.00 | 0.00 | 0.00 | 77 | 1016.6 |
| 20260506213953 | 54 | 206 | 1.7 | 2.6 | 0.00 | 0.01 | 0.00 | 77 | 1016.2 |
| 20260506213529 | 54 | 206 | 2.6 | 0.0 | 0.00 | 0.00 | 0.00 | 77 | 1016.7 |
| 20260506213154 | 54 | 206 | 2.6 | 0.0 | 0.00 | 0.00 | 0.00 | 77 | 1016.6 |
| 20260506213108 | 54 | 206 | 2.6 | 0.0 | 0.00 | 0.00 | 0.00 | 77 | 1016.7 |
| 20260506212953 | 54 | 206 | 3.5 | 4.3 | 0.00 | 0.01 | 0.00 | 77 | 1016.3 |
| 20260506212513 | 54 | 200 | 1.7 | 0.0 | 0.00 | 0.00 | 0.00 | 76 | 1016.5 |
| 20260506212012 | 54 | 200 | 1.7 | 0.0 | 0.00 | 0.00 | 0.00 | 76 | 1016.6 |
| 20260506211953 | 54 | 200 | 1.7 | 2.6 | 0.00 | 0.01 | 0.00 | 76 | 1016.2 |
| 20260506211621 | 54 | 200 | 1.7 | 0.0 | 0.00 | 0.00 | 0.00 | 76 | 1016.4 |
| 20260506211528 | 55 | 200 | 1.7 | 0.0 | 0.00 | 0.00 | 0.00 | 76 | 1016.5 |
| 20260506211019 | 55 | 200 | 1.7 | 0.0 | 0.00 | 0.00 | 0.00 | 77 | 1016.5 |
| 20260506210953 | 55 | 200 | 1.7 | 2.6 | 0.00 | 0.01 | 0.00 | 77 | 1016.2 |
| 20260506210517 | 55 | 204 | 2.6 | 0.0 | 0.00 | 0.00 | 0.00 | 77 | 1016.5 |
| 20260506210031 | 56 | 225 | 2.6 | 0.0 | 0.00 | 0.00 | 0.01 | 77 | 1016.5 |
| 20260506210005 | 55 | 228 | 2.6 | 0.0 | 0.00 | 0.00 | 0.01 | 77 | 1016.3 |
| 20260506205953 | 56 | 229 | 2.6 | 2.6 | 0.00 | 0.01 | 0.00 | 77 | 1016.2 |
| 20260506205523 | 56 | 229 | 1.7 | 0.0 | 0.00 | 0.00 | 0.01 | 77 | 1016.5 |
| 20260506205042 | 56 | 242 | 1.7 | 0.0 | 0.00 | 0.00 | 0.01 | 78 | 1016.5 |
| 20260506204624 | 56 | 242 | 0.9 | 0.0 | 0.00 | 0.00 | 0.01 | 78 | 1016.5 |
| 20260506204520 | 56 | 242 | 1.7 | 0.0 | 0.00 | 0.00 | 0.01 | 78 | 1016.4 |
| 20260506204013 | 57 | 243 | 1.7 | 0.0 | 0.00 | 0.00 | 0.01 | 79 | 1016.6 |
| 20260506203952 | 57 | 243 | 0.9 | 2.6 | 0.00 | 0.01 | 0.01 | 79 | 1016.2 |
| 20260506203512 | 57 | 238 | 1.7 | 0.0 | 0.00 | 0.00 | 0.01 | 79 | 1016.6 |
| 20260506203029 | 57 | 238 | 1.7 | 0.0 | 0.00 | 0.00 | 0.01 | 79 | 1016.5 |
| 20260506203014 | 56 | 238 | 1.7 | 0.0 | 0.00 | 0.00 | 0.01 | 79 | 1016.5 |
| 20260506202952 | 57 | 238 | 1.7 | 2.6 | 0.00 | 0.01 | 0.01 | 79 | 1016.2 |
| 20260506202542 | 57 | 238 | 1.7 | 0.0 | 0.00 | 0.00 | 0.01 | 80 | 1016.5 |
| 20260506202018 | 57 | 238 | 1.7 | 0.0 | 0.00 | 0.00 | 0.01 | 80 | 1016.6 |
| 20260506201952 | 57 | 238 | 1.7 | 2.6 | 0.00 | 0.01 | 0.01 | 80 | 1016.2 |
| 20260506201630 | 57 | 238 | 1.7 | 0.0 | 0.00 | 0.00 | 0.01 | 80 | 1016.5 |
| 20260506201533 | 58 | 238 | 0.9 | 0.0 | 0.00 | 0.00 | 0.01 | 80 | 1016.4 |
| 20260506201030 | 58 | 238 | 0.9 | 0.0 | 0.00 | 0.00 | 0.01 | 79 | 1016.3 |
| 20260506200953 | 58 | 238 | 1.7 | 2.6 | 0.00 | 0.01 | 0.01 | 79 | 1016.0 |
| 20260506200523 | 58 | 238 | 0.9 | 0.0 | 0.00 | 0.00 | 0.01 | 80 | 1016.3 |
| 20260506200124 | 58 | 238 | 0.9 | 0.0 | 0.00 | 0.00 | 0.01 | 81 | 1016.3 |
| 20260506200019 | 58 | 238 | 0.9 | 0.0 | 0.00 | 0.00 | 0.01 | 81 | 1016.3 |
| 20260506195952 | 58 | 252 | 0.9 | 2.6 | 0.00 | 0.01 | 0.01 | 81 | 1016.0 |
| 20260506195510 | 58 | 261 | 0.0 | 0.0 | 0.00 | 0.00 | 0.01 | 81 | 1016.2 |
| 20260506195030 | 58 | 261 | 0.0 | 0.0 | 0.00 | 0.00 | 0.01 | 81 | 1016.3 |
| 20260506194953 | 58 | 261 | 0.0 | 0.9 | 0.00 | 0.01 | 0.01 | 81 | 1016.0 |
| 20260506194618 | 58 | 261 | 0.0 | 0.0 | 0.00 | 0.00 | 0.01 | 81 | 1016.3 |
| 20260506194508 | 59 | 261 | 0.0 | 0.0 | 0.00 | 0.00 | 0.01 | 81 | 1016.3 |
| 20260506194020 | 59 | 261 | 0.9 | 0.0 | 0.00 | 0.00 | 0.01 | 81 | 1016.1 |
| 20260506193952 | 59 | 261 | 0.0 | 2.6 | 0.00 | 0.01 | 0.01 | 81 | 1016.0 |
| 20260506193522 | 59 | 261 | 0.9 | 0.0 | 0.00 | 0.00 | 0.01 | 81 | 1016.3 |
| 20260506193029 | 58 | 261 | 0.9 | 0.0 | 0.00 | 0.00 | 0.01 | 81 | 1016.0 |
| 20260506193011 | 59 | 261 | 1.7 | 0.0 | 0.00 | 0.00 | 0.01 | 81 | 1016.1 |
| 20260506192527 | 59 | 261 | 1.7 | 0.0 | 0.00 | 0.00 | 0.01 | 80 | 1016.1 |
| 20260506192043 | 59 | 261 | 2.6 | 0.0 | 0.00 | 0.00 | 0.01 | 81 | 1016.0 |
| 20260506191953 | 59 | 261 | 2.6 | 2.6 | 0.00 | 0.01 | 0.01 | 80 | 1015.6 |
| 20260506191621 | 59 | 273 | 3.5 | 0.0 | 0.00 | 0.00 | 0.01 | 80 | 1015.9 |
| 20260506191520 | 59 | 273 | 3.5 | 0.0 | 0.00 | 0.00 | 0.01 | 80 | 1015.9 |
| 20260506191010 | 60 | 284 | 1.7 | 0.0 | 0.00 | 0.00 | 0.01 | 80 | 1015.9 |
| 20260506190508 | 60 | 265 | 1.7 | 0.0 | 0.00 | 0.00 | 0.01 | 79 | 1015.9 |
| 20260506190026 | 60 | 264 | 1.7 | 0.0 | 0.00 | 0.00 | 0.01 | 78 | 1015.7 |
| 20260506190007 | 60 | 264 | 2.6 | 0.0 | 0.00 | 0.00 | 0.01 | 78 | 1015.7 |
| 20260506185953 | 60 | 264 | 1.7 | 2.6 | 0.00 | 0.01 | 0.01 | 78 | 1015.3 |
| 20260506185537 | 61 | 266 | 2.6 | 0.0 | 0.00 | 0.00 | 0.01 | 77 | 1015.7 |
| 20260506185013 | 61 | 288 | 1.7 | 0.0 | 0.00 | 0.00 | 0.01 | 77 | 1015.5 |
| 20260506184954 | 61 | 288 | 1.7 | 2.6 | 0.00 | 0.01 | 0.01 | 77 | 1015.3 |
| 20260506184623 | 61 | 287 | 2.6 | 0.0 | 0.00 | 0.00 | 0.01 | 76 | 1015.7 |
| 20260506184532 | 61 | 278 | 2.6 | 0.0 | 0.00 | 0.00 | 0.01 | 76 | 1015.7 |
| 20260506184024 | 62 | 269 | 4.3 | 0.0 | 0.00 | 0.00 | 0.01 | 75 | 1015.7 |
| 20260506183954 | 62 | 274 | 4.3 | 6.1 | 0.00 | 0.01 | 0.01 | 75 | 1015.1 |
| 20260506183524 | 62 | 270 | 3.5 | 0.0 | 0.00 | 0.00 | 0.01 | 74 | 1015.6 |